{"data":{"norad_id":44113,"intl_designator":"2019-020B","name":"O3B FM19","alt_names":[],"object_type":"PAYLOAD","status":"ACTIVE","operator":null,"country":"O3B","launch_date":"2019-04-04","launch_site_code":"FRGUI","launch_vehicle":null,"mission":null,"orbit_class":"UNKNOWN","rcs_meters":null,"size_class":null,"mass_kg":null,"dimensions":null,"purposes":["comms"],"wikipedia_slug":null,"has_3d_model":false,"image_url":null,"decayed_at":null,"tle_current":{"epoch":"2026-05-24T20:26:39.721632Z","epoch_age_seconds":83811,"freshness":"FRESH","line1":"1 44113U 19020B   26144.85184863 -.00000024  00000+0  00000+0 0  9990","line2":"2 44113   0.0664 342.0297 0004001  66.6339 311.3702  5.00116164130270","mean_motion":5.00116164,"eccentricity":0.0004001,"inclination_deg":0.0664,"raan_deg":342.0297,"arg_perigee_deg":66.6339,"mean_anomaly_deg":311.3702,"bstar":0,"rev_number":13027,"period_min":287.93310507756,"perigee_km":8060.0983833019,"apogee_km":8071.6564836516,"semimajor_km":14444.014433477,"source":"CELESTRAK","updated_at":"2026-05-25T13:38:14.515529Z"}}}